Location: Ay?beleni
(36.6500°N, 30.3000°E)
Time: 03:39:47
(UTC+00:00)

Meteor 2-10 Rocket - Pass Details

Date: 16 October 2021
Orbit: 734 x 885 km, 81.2° (Epoch: 08 December)

Event Time Altitude Azimuth Distance (km) Brightness Sun altitude
Rises 17:16:09 0° 179° (S) 3,459 6.8 -23.8°
Reaches altitude 10° 17:18:38 10° 176° (S) 2,514 6.0 -24.3°
Enters shadow 17:22:20 40° 161° (SSE) 1,241 4.3 -25.1°
Exits shadow 17:28:22 19° 18° (NNE) 1,919 5.4 -26.3°
Drops below altitude 10° 17:29:48 10° 15° (NNE) 2,449 6.0 -26.5°
Sets 17:32:11 0° 13° (NNE) 3,364 6.8 -27.0°
